Weather History for Kimball, NE

Change the Weather History Date:

Saturday, February 23, 2013

  Actual Average (KSNY) Record (KSNY)
Temperature  
Mean Temperature 25 °F 34 °F  
Max Temperature 41 °F 47 °F 76 °F (1982)
Min Temperature 9 °F 20 °F -8 °F (1965)
Degree Days  
Heating Degree Days 40 31  
Month to date heating degree days 773  
Since 1 July heating degree days 4430  
Cooling Degree Days 0 0  
Month to date cooling degree days 0  
Year to date cooling degree days 0  
Moisture  
Dew Point 17 °F    
Average Humidity 69    
Maximum Humidity 88    
Minimum Humidity 51    
Precipitation  
Precipitation 0.00 in 0.01 in 0.09 in (1962)
Month to date precipitation 0.24  
Year to date precipitation 0.44  
Sea Level Pressure  
Sea Level Pressure 29.68 in    
Wind  
Wind Speed 9 mph (WSW)    
Max Wind Speed 13 mph    
Max Gust Speed -    
Visibility 10 miles    
Events      
T = Trace of Precipitation, MM = Missing Value Source: NWS Daily Summary

Daily Weather History Graph

Daily Weather History Graph

Search for Another Location

Airport:

Trip Planner

Search our weather history database for the weather conditions in past years. The results will help you decide how hot, cold, wet, or windy it might be!

Date:

Astronomy

Feb. 23, 2013 Rise Set
Actual Time 7:37 AM CST 6:38 PM CST
Civil Twilight 7:09 AM CST 7:06 PM CST
Nautical Twilight 6:37 AM CST 7:38 PM CST
Astronomical Twilight 6:05 AM CST 8:10 PM CST
Moon 4:51 PM CST (2/23) 6:02 AM CST (2/23)
Length of Visible Light 11h 56m
Length of Day
11h 01m
Waxing Gibbous, 95% of the Moon is Illuminated
Feb 23
Waxing Gibbous
Feb 25
Full
Mar 4
Last Quarter
Mar 11
New
Mar 19
First Quarter

Hourly Weather History & Observations

Time (CST) Temp. Windchill Dew Point Humidity Pressure Visibility Wind Dir Wind Speed Gust Speed Precip Events Conditions
12:15 AM 15.1 °F 1.1 °F 12.0 °F 88% 29.81 in 7.0 mi WSW 12.7 mph - N/A   Clear
12:35 AM 15.8 °F 2.1 °F 12.6 °F 87% 29.80 in 7.0 mi WSW 12.7 mph - N/A   Clear
12:55 AM 16.5 °F 4.3 °F 12.7 °F 85% 29.79 in 10.0 mi WSW 10.4 mph - N/A   Clear
1:15 AM 17.2 °F 6.0 °F 12.6 °F 82% 29.79 in 10.0 mi WSW 9.2 mph - N/A   Clear
1:35 AM 16.9 °F 4.1 °F 12.0 °F 81% 29.79 in 10.0 mi WSW 11.5 mph - N/A   Clear
1:55 AM 16.3 °F 4.1 °F 10.9 °F 79% 29.77 in 10.0 mi WSW 10.4 mph - N/A   Clear
2:15 AM 14.0 °F 2.0 °F 8.8 °F 80% 29.77 in 10.0 mi WSW 9.2 mph - N/A   Clear
2:35 AM 14.9 °F 3.1 °F 9.3 °F 79% 29.77 in 10.0 mi WSW 9.2 mph - N/A   Clear
2:55 AM 15.8 °F 4.2 °F 9.5 °F 76% 29.76 in 10.0 mi WSW 9.2 mph - N/A   Clear
3:15 AM 15.4 °F 3.0 °F 9.1 °F 76% 29.75 in 10.0 mi WSW 10.4 mph - N/A   Clear
3:35 AM 14.5 °F 1.1 °F 9.0 °F 79% 29.74 in 10.0 mi West 11.5 mph - N/A   Clear
3:55 AM 13.6 °F 0.7 °F 8.4 °F 80% 29.73 in 10.0 mi WSW 10.4 mph - N/A   Clear
4:15 AM 12.2 °F -0.2 °F 7.7 °F 82% 29.73 in 10.0 mi WSW 9.2 mph - N/A   Clear
4:35 AM 11.8 °F -1.5 °F 7.9 °F 84% 29.72 in 10.0 mi WSW 10.4 mph - N/A   Clear
4:55 AM 10.0 °F -3.7 °F 5.9 °F 83% 29.72 in 10.0 mi West 10.4 mph - N/A   Clear
5:15 AM 10.6 °F -3.1 °F 6.3 °F 83% 29.72 in 10.0 mi WSW 10.4 mph - N/A   Clear
5:35 AM 9.1 °F -4.0 °F 5.2 °F 84% 29.71 in 10.0 mi WSW 9.2 mph - N/A   Clear
5:55 AM 9.3 °F -3.8 °F 5.5 °F 85% 29.70 in 10.0 mi West 9.2 mph - N/A   Clear
6:15 AM 9.7 °F -1.3 °F 5.9 °F 85% 29.70 in 10.0 mi West 6.9 mph - N/A   Clear
6:35 AM 10.2 °F -2.7 °F 6.4 °F 85% 29.70 in 10.0 mi WSW 9.2 mph - N/A   Clear
6:55 AM 10.6 °F -1.3 °F 6.4 °F 83% 29.69 in 10.0 mi WSW 8.1 mph - N/A   Clear
7:15 AM 9.7 °F -2.4 °F 5.0 °F 81% 29.69 in 10.0 mi WSW 8.1 mph - N/A   Clear
7:35 AM 11.3 °F -2.2 °F 5.7 °F 78% 29.68 in 10.0 mi WSW 10.4 mph - N/A   Clear
7:55 AM 13.1 °F 0.9 °F 6.6 °F 75% 29.68 in 10.0 mi WSW 9.2 mph - N/A   Clear
8:15 AM 14.2 °F 4.1 °F 7.0 °F 73% 29.69 in 10.0 mi WSW 6.9 mph - N/A   Clear
8:35 AM 16.9 °F 5.5 °F 8.6 °F 70% 29.69 in 10.0 mi WSW 9.2 mph - N/A   Clear
8:55 AM 20.3 °F 10.6 °F 9.9 °F 64% 29.69 in 10.0 mi WSW 8.1 mph - N/A   Clear
9:15 AM 21.6 °F 11.3 °F 10.6 °F 63% 29.69 in 10.0 mi WSW 9.2 mph - N/A   Clear
9:35 AM 23.7 °F 15.6 °F 12.7 °F 63% 29.70 in 10.0 mi WSW 6.9 mph - N/A   Clear
9:55 AM 26.4 °F 19.8 °F 14.9 °F 62% 29.70 in 10.0 mi SW 5.8 mph - N/A   Clear
10:15 AM 28.0 °F 20.0 °F 15.6 °F 60% 29.70 in 10.0 mi SW 8.1 mph - N/A   Clear
10:35 AM 30.4 °F 22.9 °F 17.6 °F 59% 29.70 in 10.0 mi SW 8.1 mph - N/A   Clear
10:55 AM 32.0 °F 28.7 °F 18.5 °F 58% 29.69 in 10.0 mi SW 3.5 mph - N/A   Clear
11:15 AM 33.4 °F 28.1 °F 19.4 °F 56% 29.69 in 10.0 mi WSW 5.8 mph - N/A   Clear
11:35 AM 34.9 °F 28.3 °F 20.3 °F 55% 29.69 in 10.0 mi SW 8.1 mph - N/A   Clear
11:55 AM 35.6 °F 28.0 °F 18.9 °F 51% 29.68 in 10.0 mi SW 10.4 mph - N/A   Clear
12:15 PM 36.3 °F 30.1 °F 21.6 °F 55% 29.67 in 10.0 mi SW 8.1 mph - N/A   Clear
12:35 PM 36.7 °F 31.2 °F 20.5 °F 52% 29.67 in 10.0 mi SW 6.9 mph - N/A   Scattered Clouds
12:55 PM 36.7 °F 32.0 °F 20.5 °F 52% 29.66 in 10.0 mi SW 5.8 mph - N/A   Clear
1:15 PM 37.4 °F 33.8 °F 20.7 °F 51% 29.65 in 10.0 mi SW 4.6 mph - N/A   Clear
1:35 PM 38.5 °F 34.1 °F 21.7 °F 51% 29.65 in 10.0 mi SW 5.8 mph - N/A   Clear
1:55 PM 38.3 °F 31.9 °F 23.2 °F 55% 29.64 in 10.0 mi SW 9.2 mph - N/A   Clear
2:16 PM 37.4 °F 31.4 °F 23.0 °F 56% 29.63 in 10.0 mi SW 8.1 mph - N/A   Clear
2:36 PM 37.4 °F 31.4 °F 21.2 °F 52% 29.62 in 10.0 mi SW 8.1 mph - N/A   Clear
2:56 PM 37.4 °F 32.8 °F 23.0 °F 56% 29.62 in 10.0 mi SW 5.8 mph - N/A   Mostly Cloudy
3:16 PM 37.4 °F - 24.8 °F 60% 29.61 in 10.0 mi Calm Calm - N/A   Overcast
3:36 PM 39.2 °F 35.9 °F 24.8 °F 56% 29.60 in 10.0 mi SSW 4.6 mph - N/A   Overcast
3:56 PM 41.0 °F 37.1 °F 24.8 °F 53% 29.60 in 10.0 mi SW 5.8 mph - N/A   Overcast
4:16 PM 39.2 °F 35.9 °F 24.8 °F 56% 29.60 in 10.0 mi SW 4.6 mph - N/A   Overcast
4:36 PM 39.2 °F - 23.0 °F 52% 29.61 in 10.0 mi Calm Calm - N/A   Overcast
4:56 PM 39.2 °F 37.0 °F 24.8 °F 56% 29.60 in 10.0 mi SSW 3.5 mph - N/A   Mostly Cloudy
5:16 PM 41.0 °F 39.0 °F 24.8 °F 53% 29.61 in 10.0 mi SSW 3.5 mph - N/A   Scattered Clouds
5:36 PM 39.2 °F 34.2 °F 23.0 °F 52% 29.61 in 10.0 mi South 6.9 mph - N/A   Mostly Cloudy
5:56 PM 35.6 °F 31.7 °F 24.8 °F 65% 29.61 in 10.0 mi South 4.6 mph - N/A   Mostly Cloudy
6:16 PM 33.8 °F 28.6 °F 24.8 °F 70% 29.62 in 10.0 mi South 5.8 mph - N/A   Scattered Clouds
6:36 PM 33.8 °F 28.6 °F 23.0 °F 65% 29.62 in 10.0 mi South 5.8 mph - N/A   Mostly Cloudy
6:56 PM 32.0 °F 28.7 °F 21.2 °F 64% 29.62 in 10.0 mi SSW 3.5 mph - N/A   Scattered Clouds
7:16 PM 32.0 °F 27.5 °F 21.2 °F 64% 29.63 in 10.0 mi SSW 4.6 mph - N/A   Scattered Clouds
7:36 PM 30.2 °F 25.4 °F 23.0 °F 75% 29.64 in 10.0 mi SW 4.6 mph - N/A   Scattered Clouds
7:56 PM 32.0 °F 28.7 °F 23.0 °F 69% 29.64 in 10.0 mi SW 3.5 mph - N/A   Mostly Cloudy
8:36 PM 32.0 °F 27.5 °F 24.8 °F 75% 29.65 in 10.0 mi West 4.6 mph - N/A   Overcast
8:56 PM 32.0 °F 28.7 °F 24.8 °F 75% 29.65 in 10.0 mi NNW 3.5 mph - N/A   Overcast
9:15 PM 32.4 °F 29.1 °F 23.9 °F 71% 29.66 in 10.0 mi North 3.5 mph - N/A   Overcast
9:35 PM 31.6 °F 27.0 °F 23.2 °F 71% 29.66 in 10.0 mi NW 4.6 mph - N/A   Scattered Clouds
9:55 PM 32.0 °F 26.4 °F 23.4 °F 70% 29.68 in 10.0 mi NNW 5.8 mph - N/A   Mostly Cloudy
10:15 PM 32.2 °F 26.7 °F 22.8 °F 68% 29.68 in 10.0 mi NNW 5.8 mph - N/A   Overcast
10:55 PM 33.4 °F - 23.5 °F 67% 29.68 in 10.0 mi Calm Calm - N/A   Overcast
11:15 PM 31.8 °F 28.5 °F 25.0 °F 76% 29.69 in 10.0 mi NW 3.5 mph - N/A   Overcast
11:35 PM 31.8 °F 25.4 °F 25.9 °F 79% 29.69 in 10.0 mi WSW 6.9 mph - N/A   Overcast
11:55 PM 32.0 °F 24.2 °F 25.5 °F 77% 29.70 in 10.0 mi WSW 9.2 mph - N/A   Overcast